Tracking 19638 objects as of 20-Apr-2019
HD Live streaming from Space Station
objects crossing your sky now

THORAD DELTA 1 DEB

Track THORAD DELTA 1 DEB now!
10-day predictions


NORAD ID: 8175
Int'l Code: 1974-089AR
Perigee: 1,283.0 km
Apogee: 1,612.1 km
Inclination: 102.6 °
Period: 114.7 minutes
Semi major axis: 7818 km
RCS: 0.0392 m2 (small)
Launch date: November 15, 1974
Source: United States (US)
Launch site: AIR FORCE WESTERN TEST RANGE (AFWTR)

Note: This is SATELLITE DEBRIS
aabbcc
Your satellite tracking list
Your tracking list is empty




NASA's NSSDC Master Catalog

Two Line Element Set (TLE):
1  8175U 74089AR  19109.18133619  .00001332  00000-0  77590-2 0  9990
2  8175 102.6279 198.3305 0210447 265.9352 120.3066 12.55788668   272
Source of the keplerian elements: AFSPC